TimeCDT,TemperatureF,Dew PointF,Humidity,Sea Level PressureIn,VisibilityMPH,Wind Direction,Wind SpeedMPH,Gust SpeedMPH,PrecipitationIn,Events,Conditions,WindDirDegrees,DateUTC
12:53 AM,69.1,64.0,84,29.96,9.0,SSW,4.6,-,N/A,,Clear,200,2013-05-20 05:53:00
1:53 AM,68.0,63.0,84,29.96,9.0,SE,5.8,-,N/A,,Scattered Clouds,140,2013-05-20 06:53:00
2:53 AM,64.4,62.6,94,29.96,9.0,SE,4.6,-,N/A,,Clear,130,2013-05-20 07:53:00
3:53 AM,64.9,62.1,90,29.96,10.0,SE,6.9,-,N/A,,Clear,140,2013-05-20 08:53:00
4:53 AM,64.0,61.0,90,29.98,10.0,SE,5.8,-,N/A,,Clear,130,2013-05-20 09:53:00
5:53 AM,64.4,60.8,88,30.03,10.0,SE,6.9,-,N/A,,Mostly Cloudy,140,2013-05-20 10:53:00
5:56 AM,64.4,60.8,88,30.03,10.0,SE,5.8,-,N/A,,Mostly Cloudy,140,2013-05-20 10:56:00
6:53 AM,64.4,60.8,88,30.04,10.0,SE,5.8,-,N/A,,Overcast,140,2013-05-20 11:53:00
7:53 AM,69.1,62.1,78,30.02,10.0,South,9.2,-,N/A,,Mostly Cloudy,170,2013-05-20 12:53:00
8:10 AM,69.8,62.6,78,30.04,10.0,South,10.4,-,N/A,,Partly Cloudy,170,2013-05-20 13:10:00
8:53 AM,73.9,64.9,73,30.02,10.0,SSW,8.1,-,N/A,,Partly Cloudy,200,2013-05-20 13:53:00
9:53 AM,79.0,66.9,66,30.03,10.0,Variable,6.9,-,N/A,,Scattered Clouds,0,2013-05-20 14:53:00
10:20 AM,78.8,66.2,65,30.05,10.0,SSW,11.5,18.4,N/A,,Mostly Cloudy,200,2013-05-20 15:20:00
10:53 AM,75.9,66.9,74,30.04,10.0,SSW,9.2,-,N/A,,Overcast,210,2013-05-20 15:53:00
11:28 AM,78.8,68.0,69,30.05,10.0,South,11.5,-,N/A,,Mostly Cloudy,190,2013-05-20 16:28:00
11:53 AM,79.0,68.0,69,30.03,10.0,South,10.4,17.3,N/A,,Overcast,190,2013-05-20 16:53:00
12:28 PM,80.6,68.0,65,30.05,10.0,South,6.9,-,N/A,,Mostly Cloudy,190,2013-05-20 17:28:00
12:53 PM,80.1,69.1,69,30.02,10.0,South,9.2,-,N/A,,Overcast,170,2013-05-20 17:53:00
1:53 PM,82.9,69.1,63,30.00,10.0,SSE,12.7,-,N/A,,Scattered Clouds,160,2013-05-20 18:53:00
2:53 PM,82.9,66.9,58,29.99,10.0,South,12.7,-,N/A,,Mostly Cloudy,180,2013-05-20 19:53:00
3:53 PM,82.9,66.9,58,29.98,10.0,South,11.5,-,N/A,,Mostly Cloudy,170,2013-05-20 20:53:00
4:53 PM,82.0,66.9,60,29.97,10.0,South,9.2,-,N/A,,Mostly Cloudy,170,2013-05-20 21:53:00
5:53 PM,82.0,66.9,60,29.94,10.0,South,13.8,20.7,N/A,,Scattered Clouds,170,2013-05-20 22:53:00
6:53 PM,80.1,66.0,62,29.94,10.0,SSE,9.2,-,N/A,,Scattered Clouds,160,2013-05-20 23:53:00
7:53 PM,77.0,66.0,69,29.93,10.0,SSE,9.2,-,N/A,,Clear,150,2013-05-21 00:53:00
9:53 PM,73.9,66.0,76,29.94,10.0,SSE,6.9,-,N/A,,Clear,160,2013-05-21 02:53:00
10:53 PM,73.0,66.0,79,29.94,10.0,South,9.2,-,N/A,,Clear,180,2013-05-21 03:53:00
11:53 PM,73.9,66.0,76,29.94,10.0,South,12.7,-,N/A,,Clear,180,2013-05-21 04:53:00